Regional Weather Roundup
Issued by NWS

Home | Current Version | Previous Version | Text Only | Print | Product List | Glossary Off
Versions: 1 2 3 4 5 6 7 8 9 10 11 12 13 14 15 16 17 18 19 20 21 22 23 24 25 26 27 28 29 30 31 32 33 34 35 36 37 38 39 40 41 42 43 44 45 46 47 48 49 50

000
ASUS44 KMEG 231000
RWRTN
TENNESSEE HOURLY STATE WEATHER ROUNDUP
NATIONAL WEATHER SERVICE MEMPHIS TN
500 AM CDT WED JUL 23 2014

TNZ002-004-019-021-049-052-054-088>092-231100-
WEST TENNESSEE

CITY           SKY/WX    TMP DP  RH WIND       PRES   REMARKS
MEMPHIS INTL   CLEAR     75  69  81 CALM      30.05R
NWS MEMPHIS      N/A     72 N/A N/A MISG        N/A
JACKSON        FOG       70  69  97 CALM      30.05S VSB 1
DYERSBURG      CLEAR     70  63  78 CALM      30.06S
UNION CITY     CLEAR     70  70 100 CALM      30.04S
PARIS          CLEAR     70  68  94 CALM      30.06R
LEXINGTON      MOCLDY    70  70 100 CALM      30.05S VSB 1/4
SAVANNAH       CLEAR     70  70 100 CALM      30.07S
$$

TNZ008-025-027-028-033-062-065-066-231100-
NORTH MIDDLE TENNESSEE

CITY           SKY/WX    TMP DP  RH WIND       PRES   REMARKS
NASHVILLE      CLEAR     74  72  93 CALM      30.07S
CLARKSVILLE    CLEAR     72  71  97 CALM      30.05S FOG
COOKEVILLE     PTCLDY    72  70  94 CALM      30.10R
CROSSVILLE     PTCLDY    68  66  93 CALM      30.14S
$$

TNZ061-075-076-078-094-096-097-231100-
SOUTH MIDDLE TENNESSEE

CITY           SKY/WX    TMP DP  RH WIND       PRES   REMARKS
FAYETTEVILLE   CLEAR     68  66  94 CALM      30.09S
TULLAHOMA      CLOUDY    70  68  94 CALM      30.11R VSB 1/2
WINCHESTER     CLEAR     68  66  94 CALM      30.10S
MCMINNVILLE    MOCLDY    70  70 100 CALM      30.10S
COLUMBIA       PTCLDY    73  72  94 CALM      30.07R
SHELBYVILLE    CLEAR     72  72 100 CALM      30.10R
$$

TNZ017-018-042-046-047-231100-
NORTHEAST TENNESSEE

CITY           SKY/WX    TMP DP  RH WIND       PRES   REMARKS
TRI CITIES     MOCLDY    67  65  93 CALM      30.12S
ELIZABETHTON   SUNNY     64  63  94 CALM      30.13S
$$

TNZ012-013-036-069-073-074-231100-
CENTRAL EAST TENNESSEE

CITY           SKY/WX    TMP DP  RH WIND       PRES   REMARKS
KNOXVILLE      CLOUDY    73  70  90 SW5       30.08S
OAK RIDGE      CLOUDY    75  72  90 CALM      30.10R
GATLINBURG     CLOUDY    72  68  88 CALM      30.09S
$$

TNZ083-085-099-231100-
SOUTHEAST TENNESSEE

CITY           SKY/WX    TMP DP  RH WIND       PRES   REMARKS
CHATTANOOGA    PTCLDY    71  69  93 CALM      30.10R FOG
$$

SKY/WX REPORTED AS FAIR MEANS FEW OR NO CLOUDS BELOW
12 THOUSAND FEET.




USA.gov is the U.S. government's official web portal to all federal, state and local government web resources and services.